This is the latest recevied weather packets stored in our database for station/object KC8RFE-2. If no packets are shown the sender has not sent any weather packets the latest 1 day(s).
| Time | Temp. | Humidity | Pressure | Rain* | Wind** | Luminosity | Snow |
|---|---|---|---|---|---|---|---|
| 1777991598 | 8.89° C | 9% | - | 0 mm | 2.24 m/s, 34° | - | - |
| 1777991326 | 9.44° C | 9% | - | 0 mm | 2.68 m/s, 18° | - | - |
| 1777990998 | 9.44° C | 9% | - | 0 mm | 1.34 m/s, 16° | - | - |
| 1777990726 | 9.44° C | 9% | - | 0 mm | 1.34 m/s, 26° | - | - |
| 1777990426 | 9.44° C | 9% | - | 0 mm | 0.89 m/s, 347° | - | - |
| 1777990126 | 9.44° C | 8% | - | 0 mm | 0.89 m/s, 344° | - | - |
| 1777989797 | 10° C | 8% | - | 0 mm | 0.89 m/s, 318° | - | - |
| 1777989526 | 10° C | 8% | - | 0 mm | 1.34 m/s, 340° | - | - |
| 1777989197 | 10° C | 8% | - | 0 mm | 0.89 m/s, 340° | - | - |
| 1777988926 | 10° C | 8% | - | 0 mm | 1.34 m/s, 359° | - | - |
| 1777988599 | 10° C | 8% | - | 0 mm | 0.89 m/s, 350° | - | - |
| 1777988326 | 10.56° C | 8% | - | 0 mm | 1.34 m/s, 342° | - | - |
| 1777987997 | 10° C | 9% | - | 0 mm | 1.34 m/s, 318° | - | - |
| 1777987726 | 10° C | 9% | - | 0 mm | 0.89 m/s, 333° | - | - |
| 1777987397 | 10.56° C | 9% | - | 0 mm | 0.89 m/s, 329° | - | - |
| 1777987126 | 10.56° C | 9% | - | 0 mm | 0.89 m/s, 13° | - | - |
| 1777986797 | 10.56° C | 9% | - | 0 mm | 0.89 m/s, 300° | - | - |
| 1777986526 | 10.56° C | 9% | - | 0 mm | 0.89 m/s, 306° | - | - |
| 1777986197 | 10.56° C | 8% | - | 0 mm | 1.34 m/s, 340° | - | - |
| 1777985926 | 10.56° C | 9% | - | 0 mm | 0.89 m/s, 343° | - | - |
| 1777985597 | 10.56° C | 9% | - | 0 mm | 0.89 m/s, 352° | - | - |
| 1777985326 | 10.56° C | 8% | - | 0 mm | 0.89 m/s, 337° | - | - |
| 1777984997 | 10.56° C | 8% | - | 0 mm | 1.34 m/s, 347° | - | - |
| 1777984726 | 10.56° C | 9% | - | 0 mm | 0.45 m/s, 330° | - | - |
| 1777984397 | 10.56° C | 9% | - | 0 mm | 0.45 m/s, 328° | - | - |
* Rain latest hour (hover to see other rain measurements)
** Current wind speed in m/s (hover to see current wind gust speed)